Rifle, CO

1:56 AM MST on February 24, 2017 (GMT -0700)
Garfield County Regional

Weather History for KRIL - April, 2014

Change the Weather History Date:

Thursday, April 17, 2014

  Actual Average Record
Temperature  
Mean Temperature 47 °F 48 °F  
Max Temperature 65 °F 63 °F 84 °F (1936)
Min Temperature 28 °F 34 °F 13 °F (1960)
Degree Days  
Heating Degree Days 18 17  
Month to date heating degree days 338 321  
Since 1 July heating degree days 6274 6105  
Cooling Degree Days 0 0  
Month to date cooling degree days 0 0  
Year to date cooling degree days 0 0  
Moisture  
Dew Point 22 °F    
Average Humidity 46    
Maximum Humidity 75    
Minimum Humidity 16    
Precipitation  
Precipitation 0.00 in 0.04 in 0.44 in (1917)
Month to date precipitation 0.56 0.67  
Year to date precipitation 2.74 3.44  
Sea Level Pressure  
Sea Level Pressure 30.00 in    
Wind  
Wind Speed 7 mph (WSW)    
Max Wind Speed 24 mph    
Max Gust Speed 32 mph    
Visibility 10 miles    
Events      
T = Trace of Precipitation, MM = Missing Value Source: NWS Daily Summary

Daily Weather History Graph

Daily Weather History Graph

Search for Another Location

Airport or City:

Trip Planner

Search our weather history database for the weather conditions in past years. The results will help you decide how hot, cold, wet, or windy it might be!

Date:

Astronomy

Apr. 17, 2014 Rise Set
Actual Time 6:30 AM MDT 7:50 PM MDT
Civil Twilight 6:02 AM MDT 8:18 PM MDT
Nautical Twilight 5:29 AM MDT 8:52 PM MDT
Astronomical Twilight 4:54 AM MDT 9:27 PM MDT
Moon 10:39 PM MDT (4/17) 8:05 AM MDT (4/17)
Length of Visible Light 14h 16m
Length of Day
13h 20m
Waning Gibbous, 93% of the Moon is Illuminated
Apr 17
Waning Gibbous
Apr 22
Last Quarter
Apr 29
New
May 6
First Quarter
May 14
Full

Hourly Weather History & Observations

Time (MDT) Temp. Windchill Dew Point Humidity Pressure Visibility Wind Dir Wind Speed Gust Speed Precip Events Conditions
12:53 AM 36.0 °F 33.3 °F 24.1 °F 62% 29.97 in 10.0 mi East 3.5 mph - N/A   Overcast
1:53 AM 35.1 °F 31.0 °F 23.0 °F 61% 29.98 in 10.0 mi NE 4.6 mph - N/A   Mostly Cloudy
2:53 AM 34.0 °F - 25.0 °F 70% 29.98 in 10.0 mi Calm Calm - N/A   Mostly Cloudy
3:53 AM 32.0 °F 28.7 °F 21.9 °F 66% 29.99 in 10.0 mi SW 3.5 mph - N/A   Clear
4:53 AM 30.9 °F 27.5 °F 21.9 °F 69% 30.01 in 10.0 mi SSE 3.5 mph - N/A   Clear
5:53 AM 28.0 °F 24.2 °F 21.9 °F 78% 30.04 in 10.0 mi Variable 3.5 mph - N/A   Clear
6:53 AM 28.9 °F 25.2 °F 21.9 °F 75% 30.07 in 10.0 mi ESE 3.5 mph - N/A   Clear
7:53 AM 34.0 °F - 24.1 °F 67% 30.09 in 10.0 mi Calm Calm - N/A   Clear
8:53 AM 39.0 °F - 23.0 °F 53% 30.10 in 10.0 mi Calm Calm - N/A   Clear
11:53 AM 54.0 °F - 18.0 °F 24% 30.06 in 10.0 mi WNW 8.1 mph - N/A   Clear
12:53 PM 59.0 °F - 21.0 °F 23% 30.01 in 10.0 mi West 12.7 mph - N/A   Clear
1:53 PM 62.1 °F - 18.0 °F 18% 29.99 in 10.0 mi West 16.1 mph - N/A   Clear
2:53 PM 64.0 °F - 19.9 °F 18% 29.96 in 10.0 mi West 19.6 mph - N/A   Clear
3:53 PM 64.9 °F - 19.0 °F 17% 29.94 in 10.0 mi West 19.6 mph - N/A   Clear
4:53 PM 64.0 °F - 17.1 °F 16% 29.94 in 10.0 mi West 21.9 mph - N/A   Clear
5:53 PM 64.0 °F - 19.0 °F 18% 29.95 in 10.0 mi West 17.3 mph 29.9 mph N/A   Clear
6:53 PM 63.0 °F - 21.0 °F 20% 29.94 in 10.0 mi West 15.0 mph - N/A   Clear
7:53 PM 55.9 °F - 23.0 °F 28% 29.96 in 10.0 mi West 8.1 mph - N/A   Clear
8:53 PM 50.0 °F - 26.1 °F 39% 29.97 in 10.0 mi SSE 6.9 mph - N/A   Clear
9:53 PM 48.0 °F - 27.0 °F 44% 29.99 in 10.0 mi ESE 3.5 mph - N/A   Clear
10:53 PM 45.0 °F - 28.9 °F 53% 30.00 in 10.0 mi Calm Calm - N/A   Clear
11:53 PM 44.1 °F - 27.0 °F 51% 30.01 in 10.0 mi Calm Calm - N/A   Clear